TimePST,TemperatureF,Dew PointF,Humidity,Sea Level PressureIn,VisibilityMPH,Wind Direction,Wind SpeedMPH,Gust SpeedMPH,PrecipitationIn,Events,Conditions,WindDirDegrees,DateUTC
12:15 AM,8.6,3.2,79,29.87,1.0,Calm,Calm,-,N/A,Snow,Light Snow,0,2013-01-12 08:15:00
12:35 AM,6.8,3.2,85,29.87,1.0,Calm,Calm,-,N/A,Snow,Light Snow,0,2013-01-12 08:35:00
12:55 AM,6.8,1.4,79,29.87,3.0,Calm,Calm,-,N/A,,Haze,0,2013-01-12 08:55:00
1:15 AM,5.0,1.4,85,29.88,10.0,Calm,Calm,-,N/A,,Clear,0,2013-01-12 09:15:00
1:35 AM,5.0,-0.4,78,29.88,10.0,Calm,Calm,-,N/A,,Clear,0,2013-01-12 09:35:00
1:55 AM,3.2,-0.4,85,29.88,10.0,Calm,Calm,-,N/A,,Clear,0,2013-01-12 09:55:00
2:15 AM,5.0,-0.4,78,29.88,10.0,Calm,Calm,-,N/A,,Mostly Cloudy,0,2013-01-12 10:15:00
2:35 AM,6.8,1.4,79,29.88,10.0,Calm,Calm,-,N/A,,Overcast,0,2013-01-12 10:35:00
2:55 AM,6.8,1.4,79,29.88,10.0,Calm,Calm,-,N/A,,Overcast,0,2013-01-12 10:55:00
3:15 AM,6.8,1.4,79,29.88,10.0,Calm,Calm,-,N/A,,Mostly Cloudy,0,2013-01-12 11:15:00
3:35 AM,6.8,1.4,79,29.87,10.0,Calm,Calm,-,N/A,,Scattered Clouds,0,2013-01-12 11:35:00
3:55 AM,6.8,1.4,79,29.88,7.0,Calm,Calm,-,N/A,Snow,Light Snow,0,2013-01-12 11:55:00
4:15 AM,6.8,1.4,79,29.88,5.0,Calm,Calm,-,N/A,Snow,Light Snow,0,2013-01-12 12:15:00
4:35 AM,5.0,1.4,85,29.88,10.0,Calm,Calm,-,N/A,,Scattered Clouds,0,2013-01-12 12:35:00
4:55 AM,5.0,-0.4,78,29.88,10.0,Calm,Calm,-,N/A,,Clear,0,2013-01-12 12:55:00
5:15 AM,5.0,-0.4,78,29.89,10.0,North,4.6,-,N/A,,Clear,10,2013-01-12 13:15:00
5:35 AM,5.0,-0.4,78,29.90,10.0,North,3.5,-,N/A,,Clear,360,2013-01-12 13:35:00
5:55 AM,3.2,-2.2,78,29.91,10.0,Calm,Calm,-,N/A,,Clear,0,2013-01-12 13:55:00
6:15 AM,3.2,-4.0,72,29.92,10.0,Calm,Calm,-,N/A,,Clear,0,2013-01-12 14:15:00
6:35 AM,1.4,-4.0,78,29.92,10.0,Calm,Calm,-,N/A,,Clear,0,2013-01-12 14:35:00
6:55 AM,1.4,-4.0,78,29.93,7.0,Calm,Calm,-,N/A,,Clear,0,2013-01-12 14:55:00
7:15 AM,1.4,-5.8,72,29.94,10.0,Calm,Calm,-,N/A,,Clear,0,2013-01-12 15:15:00
7:35 AM,1.4,-4.0,78,29.94,10.0,Calm,Calm,-,N/A,,Clear,0,2013-01-12 15:35:00
7:55 AM,3.2,-2.2,78,29.95,7.0,Calm,Calm,-,N/A,,Clear,0,2013-01-12 15:55:00
8:15 AM,5.0,-0.4,78,29.96,7.0,Calm,Calm,-,N/A,,Clear,0,2013-01-12 16:15:00
8:35 AM,10.4,3.2,73,29.96,10.0,Calm,Calm,-,N/A,,Clear,0,2013-01-12 16:35:00
8:55 AM,14.0,6.8,73,29.96,10.0,Calm,Calm,-,N/A,,Clear,0,2013-01-12 16:55:00
9:15 AM,17.6,8.6,68,29.95,10.0,East,3.5,-,N/A,,Clear,90,2013-01-12 17:15:00
9:55 AM,21.2,3.2,46,29.96,10.0,ESE,5.8,-,N/A,,Clear,110,2013-01-12 17:55:00
10:15 AM,23.0,5.0,46,29.96,10.0,East,4.6,-,N/A,,Clear,80,2013-01-12 18:15:00
10:35 AM,23.0,1.4,39,29.96,10.0,Calm,Calm,-,N/A,,Clear,0,2013-01-12 18:35:00
10:55 AM,24.8,-0.4,34,29.95,10.0,ESE,3.5,-,N/A,,Clear,110,2013-01-12 18:55:00
11:35 AM,26.6,-4.0,26,29.93,10.0,ENE,5.8,-,N/A,,Clear,70,2013-01-12 19:35:00
11:55 AM,26.6,-4.0,26,29.93,10.0,ENE,9.2,-,N/A,,Clear,60,2013-01-12 19:55:00
12:15 PM,26.6,-2.2,29,29.92,10.0,East,6.9,-,N/A,,Clear,80,2013-01-12 20:15:00
12:35 PM,26.6,-2.2,29,29.91,10.0,East,5.8,-,N/A,,Clear,90,2013-01-12 20:35:00
12:55 PM,26.6,-4.0,26,29.91,10.0,East,6.9,-,N/A,,Clear,100,2013-01-12 20:55:00
1:15 PM,28.4,-5.8,23,29.91,10.0,East,4.6,-,N/A,,Clear,100,2013-01-12 21:15:00
1:35 PM,26.6,-5.8,24,29.91,10.0,ENE,5.8,-,N/A,,Clear,70,2013-01-12 21:35:00
1:55 PM,26.6,-5.8,24,29.91,10.0,East,8.1,-,N/A,,Clear,80,2013-01-12 21:55:00
2:15 PM,26.6,-4.0,26,29.92,10.0,East,5.8,-,N/A,,Clear,100,2013-01-12 22:15:00
2:35 PM,26.6,-0.4,31,29.92,10.0,East,6.9,-,N/A,,Clear,100,2013-01-12 22:35:00
2:55 PM,26.6,1.4,34,29.92,10.0,ESE,6.9,-,N/A,,Clear,120,2013-01-12 22:55:00
3:15 PM,24.8,1.4,36,29.92,10.0,East,5.8,-,N/A,,Clear,100,2013-01-12 23:15:00
3:35 PM,23.0,3.2,43,29.92,10.0,East,8.1,-,N/A,,Clear,100,2013-01-12 23:35:00
4:15 PM,21.2,3.2,46,29.92,10.0,ESE,4.6,-,N/A,,Clear,120,2013-01-13 00:15:00
4:35 PM,21.2,3.2,46,29.92,10.0,East,3.5,-,N/A,,Clear,80,2013-01-13 00:35:00
5:15 PM,17.6,5.0,58,29.92,10.0,Calm,Calm,-,N/A,,Clear,0,2013-01-13 01:15:00
5:35 PM,15.8,3.2,58,29.93,10.0,Calm,Calm,-,N/A,,Clear,0,2013-01-13 01:35:00
5:55 PM,14.0,1.4,57,29.93,10.0,Calm,Calm,-,N/A,,Clear,0,2013-01-13 01:55:00
6:15 PM,12.2,1.4,62,29.93,10.0,Calm,Calm,-,N/A,,Clear,0,2013-01-13 02:15:00
6:35 PM,12.2,1.4,62,29.93,10.0,Calm,Calm,-,N/A,,Clear,0,2013-01-13 02:35:00
6:55 PM,10.4,1.4,67,29.94,10.0,Calm,Calm,-,N/A,,Clear,0,2013-01-13 02:55:00
7:15 PM,10.4,1.4,67,29.94,10.0,Calm,Calm,-,N/A,,Clear,0,2013-01-13 03:15:00
7:35 PM,8.6,1.4,73,29.94,10.0,Calm,Calm,-,N/A,,Clear,0,2013-01-13 03:35:00
7:55 PM,8.6,1.4,73,29.94,10.0,Calm,Calm,-,N/A,,Clear,0,2013-01-13 03:55:00
8:15 PM,6.8,-0.4,72,29.94,10.0,Calm,Calm,-,N/A,,Clear,0,2013-01-13 04:15:00
8:35 PM,5.0,-0.4,78,29.94,10.0,Calm,Calm,-,N/A,,Clear,0,2013-01-13 04:35:00
8:55 PM,5.0,-0.4,78,29.94,10.0,Calm,Calm,-,N/A,,Clear,0,2013-01-13 04:55:00
9:15 PM,5.0,-0.4,78,29.94,10.0,Calm,Calm,-,N/A,,Clear,0,2013-01-13 05:15:00
9:35 PM,5.0,-0.4,78,29.95,10.0,Calm,Calm,-,N/A,,Clear,0,2013-01-13 05:35:00
9:55 PM,3.2,-2.2,78,29.95,10.0,Calm,Calm,-,N/A,,Clear,0,2013-01-13 05:55:00
10:15 PM,3.2,-4.0,72,29.95,10.0,Calm,Calm,-,N/A,,Clear,0,2013-01-13 06:15:00
10:35 PM,3.2,-4.0,72,29.95,10.0,Calm,Calm,-,N/A,,Clear,0,2013-01-13 06:35:00
10:55 PM,1.4,-4.0,78,29.95,7.0,Calm,Calm,-,N/A,,Clear,0,2013-01-13 06:55:00
11:15 PM,1.4,-4.0,78,29.95,10.0,Calm,Calm,-,N/A,,Clear,0,2013-01-13 07:15:00
11:35 PM,1.4,-4.0,78,29.95,5.0,Calm,Calm,-,N/A,,Haze,0,2013-01-13 07:35:00
11:55 PM,1.4,-4.0,78,29.95,10.0,Calm,Calm,-,N/A,,Scattered Clouds,0,2013-01-13 07:55:00